Location: Barrialito
(10.3588°N, 66.9747°W)
Time: 04:17:29
(UTC+00:00)

H-2A R/B - Pass Details

Date: 06 July 2022
Orbit: 732 x 837 km, 98.2° (Epoch: 09 August)

Event Time Altitude Azimuth Distance (km) Brightness Sun altitude
Rises 23:06:40 0° 198° (SSW) 3,353 5.3 -3.7°
Reaches altitude 10° 23:09:38 10° 215° (SW) 2,431 4.8 -4.4°
Maximum altitude 23:13:27 20° 260° (W) 1,851 4.9 -5.2°
Drops below altitude 10° 23:17:17 10° 305° (NW) 2,443 6.3 -6.1°
Sets 23:20:18 0° 322° (NW) 3,376 6.6 -6.8°
